Connexion S'enregistrer

Connexion à votre compte

Identifiant
Mot de passe
Maintenir la connexion active sur ce site

Créer un compte

Pour valider ce formulaire, vous devez remplir tous les champs.
Nom
Identifiant
Mot de passe
Répétez le mot de passe
Adresse e-mail
Répétez l'adresse e-mail

Nous contacter

 Téléphone : +33 (0)4 79 54 41 81

Coordonnées détaillées et accès : cliquez ici

 
LFLB °C
    Ferienhaus Ostsee
[source: ADDS]
METAR
LFLB 161830Z AUTO 19002KT 3400 -RADZ BR BKN006 BKN014 OVC024 05/05 Q1015 TEMPO 2000 -RADZ BR =
TAF LFLB 161700Z 1618/1718 VRB05KT 8000 BKN020 PROB40 TEMPO 1618/1712 2000 -RADZ BR BKN007 BKN012 PROB30 TEMPO 1700/1709 1000 -RASN OVC004
TAF
TAF LFLB 161700Z 1618/1718 VRB05KT 8000 BKN020 PROB40 TEMPO 1618/1712 2000 -RADZ BR BKN007 BKN012 PROB30 TEMPO 1700/1709 1000 -RASN OVC004 =
SR / SS: 07:10 / 15:53 UTC (Lever/Coucher du soleil le 2018-12-16)
JSN Boot template designed by JoomlaShine.com